Weather Roundup
Issued by NWS

Home | Current Version | Previous Version | Graphics & Text | Print | Product List | Glossary Off
Versions: 1 2 3 4 5 6 7 8 9 10 11 12 13 14 15 16 17 18 19 20 21 22 23 24 25 26 27 28 29 30 31 32 33 34 35 36 37 38 39 40 41 42 43 44 45 46 47 48 49 50

030
NZUS93 KARX 281610
HRRWXR

CURRENT HOURLY OBSERVATIONS ACROSS
MUCH OF THE UPPER MISSISSIPPI VALLEY
NATIONAL WEATHER SERVICE LA CROSSE WI
1100 AM CDT THU JUL 28 2016


...SOUTHEAST MINNESOTA...


CITY           SKY/WX    TMP DP  RH WIND       PRES   REMARKS
ROCHESTER      LGT RAIN  67  65  93 N8        30.01R FOG
ROCHESTER/MAYO CLOUDY    66  66 100 NW8       30.00R
WINONA         CLOUDY    70  64  83 N9        29.97R
AUSTIN         CLOUDY    66  63  88 N8        30.01R
ALBERT LEA     CLOUDY    68  63  83 N6        30.02S
DODGE CENTER   CLOUDY    66  64  94 N8        30.02R
PRESTON        CLOUDY    66  63  90 N9        29.99S
OWATONNA       CLOUDY    70  63  78 NW8       30.03R
FARIBAULT      CLOUDY    70  64  83 NW10      30.04R
$$

...ELSEWHERE IN MINNESOTA...


CITY           SKY/WX    TMP DP  RH WIND       PRES   REMARKS
MINNEAPOLIS    CLOUDY    66  61  84 N10       30.04R
INTNL FALLS    PTSUNNY   71  58  63 N5        30.11F
DULUTH         SUNNY     71  54  54 E10       30.10S
RED WING       DRIZZLE   70  64  83 N6        30.00R
REDWOOD FALLS  CLOUDY    66  61  84 N7        30.07R
MANKATO        CLOUDY    68  61  77 N10       30.04S
WORTHINGTON    CLOUDY    68  62  81 N8        30.08S
FAIRMONT       CLOUDY    64  61  88 N7        30.04S
$$

...SOUTHWEST WISCONSIN...


CITY           SKY/WX    TMP DP  RH WIND       PRES   REMARKS
LA CROSSE      CLOUDY    69  67  93 N8        29.94R
PRAIRIE DU CHI DRIZZLE   72  68  87 W9        29.92R
BOSCOBEL       CLOUDY    77  69  76 VRB5      29.91S
LONE ROCK      CLOUDY    73  69  87 E7        29.93S
PLATTEVILLE    PTSUNNY   77  69  76 E3        29.92S
FORT MC COY    CLOUDY    67  65  94 NE10      29.95R
CAMP DOUGLAS   CLOUDY    66  64  94 E9        29.95
MAUSTON-NEW LI CLOUDY    69  65  87 E7        29.95S
VIROQUA        CLOUDY    70  70 100 E5        29.94R
WIS DELLS      CLOUDY    69  65  86 E12       29.95S
$$

...ELSEWHERE IN WISCONSIN...


CITY           SKY/WX    TMP DP  RH WIND       PRES   REMARKS
MILWAUKEE      PTSUNNY   76  69  79 N10       29.93S
MADISON        PTSUNNY   74  68  81 E8        29.93R
GREEN BAY      CLOUDY    69  66  90 NE15      29.99S
EAU CLAIRE     CLOUDY    66  62  87 NE9       30.01R
BLACK RVR FLS  RAIN      65  65 100 NE7       29.97R
MEDFORD        DRIZZLE   62  62 100 NE5       30.03S
WAUSAU         CLOUDY    62  60  93 NE8       30.01S
WIS RAPIDS     CLOUDY    65  59  81 E9        29.99S
MARSHFIELD     LGT RAIN  63  61  93 NE12      30.00R FOG
RICE LAKE      PTSUNNY   69  58  69 N9        30.05R
$$

...NORTHEAST IOWA...


CITY           SKY/WX    TMP DP  RH WIND       PRES   REMARKS
WATERLOO       CLOUDY    74  65  73 NW13      29.95F
DUBUQUE        PTSUNNY   79  69  71 N3        29.93R
DECORAH        CLOUDY    68  68 100 N7        29.96R
MASON CITY     CLOUDY    70  64  81 NW13      30.03R
CHARLES CITY   CLOUDY    70  70 100 NW9       29.99S
OELWEIN        CLOUDY    73  68  83 NW13      29.96R
$$

...ELSEWHERE IN IOWA...


CITY           SKY/WX    TMP DP  RH WIND       PRES   REMARKS
DES MOINES     MOSUNNY   78  66  66 N12G21    29.99R
IOWA CITY      PTSUNNY   75  67  76 NW14      29.95R
FORT DODGE     CLOUDY    66  63  88 N7        30.05R
MARSHALLTOWN   CLOUDY    71  65  81 MISG      30.00R
CEDAR RAPIDS   CLOUDY    72  67  84 NW12      29.95R
$$

...NORTHERN ILLINOIS...


CITY           SKY/WX    TMP DP  RH WIND       PRES   REMARKS
CHICAGO-OHARE  PTSUNNY   83  70  64 NE8       29.89F
CHICAGO-MIDWAY TSTM      83  68  60 E5        29.89F
MOLINE         MOSUNNY   84  69  60 W6        29.90R
ROCKFORD       MOSUNNY   82  71  69 VRB3      29.91S
PEORIA         MOSUNNY   83  73  72 E5        29.89F
$$

NOTE: "FAIR" INDICATES FEW OR NO CLOUDS BELOW 12,000 FEET WITH NO
SIGNIFICANT WEATHER AND/OR OBSTRUCTIONS TO VISIBILITY. WIND
SPEEDS ARE IN MILES-PER-HOUR.




USA.gov is the U.S. government's official web portal to all federal, state and local government web resources and services.